Time,TemperatureF,DewpointF,PressureIn,WindDirection,WindDirectionDegrees,WindSpeedMPH,WindSpeedGustMPH,Humidity,HourlyPrecipIn,Conditions,Clouds,dailyrainin,SoftwareType,DateUTC
2013-03-01 00:00:00,48.2,35.1,29.90,NW,315,0.9,1.1,60,0.00,,,0.00,WUHU216HW,2013-03-01 05:00:00,
2013-03-01 00:05:00,48.1,35.3,29.90,NW,315,0.7,1.6,61,0.00,,,0.00,WUHU216HW,2013-03-01 05:05:00,
2013-03-01 00:06:00,48.1,35.3,29.90,NW,315,0.0,1.6,61,0.00,,,0.00,WUHU216HW,2013-03-01 05:06:00,
2013-03-01 00:11:00,48.1,34.9,29.90,NW,315,0.7,1.8,60,0.00,,,0.00,WUHU216HW,2013-03-01 05:11:00,
2013-03-01 00:16:00,47.9,34.7,29.90,NNW,338,1.1,2.2,60,0.00,,,0.00,WUHU216HW,2013-03-01 05:16:00,
2013-03-01 00:21:00,47.9,34.7,29.90,NW,315,0.7,2.2,60,0.00,,,0.00,WUHU216HW,2013-03-01 05:21:00,
2013-03-01 00:26:00,47.9,34.7,29.90,NNW,338,1.3,2.0,60,0.00,,,0.00,WUHU216HW,2013-03-01 05:26:00,
2013-03-01 00:31:00,47.7,34.6,29.90,NNW,338,0.9,2.2,60,0.00,,,0.00,WUHU216HW,2013-03-01 05:31:00,
2013-03-01 00:36:00,47.7,34.6,29.91,NNW,338,2.7,2.7,60,0.00,,,0.00,WUHU216HW,2013-03-01 05:36:00,
2013-03-01 00:41:00,47.5,34.4,29.91,WNW,293,0.0,2.7,60,0.00,,,0.00,WUHU216HW,2013-03-01 05:41:00,
2013-03-01 00:46:00,47.5,34.4,29.91,NNW,338,3.4,3.4,60,0.00,,,0.00,WUHU216HW,2013-03-01 05:46:00,
2013-03-01 00:51:00,47.3,34.2,29.91,NNW,338,1.1,3.4,60,0.00,,,0.00,WUHU216HW,2013-03-01 05:51:00,
2013-03-01 00:56:00,47.3,34.2,29.91,NW,315,1.8,1.8,60,0.00,,,0.00,WUHU216HW,2013-03-01 05:56:00,
2013-03-01 01:01:00,47.2,34.0,29.90,WNW,293,1.6,2.2,60,0.00,,,0.00,WUHU216HW,2013-03-01 06:01:00,
2013-03-01 01:06:00,47.2,34.0,29.91,NW,315,1.6,2.2,60,0.00,,,0.00,WUHU216HW,2013-03-01 06:06:00,
2013-03-01 01:11:00,47.0,33.8,29.91,NW,315,1.6,2.2,60,0.00,,,0.00,WUHU216HW,2013-03-01 06:11:00,
2013-03-01 01:16:00,47.0,33.4,29.91,NNW,338,2.9,3.1,59,0.00,,,0.00,WUHU216HW,2013-03-01 06:16:00,
2013-03-01 01:21:00,46.8,33.2,29.91,WNW,293,1.8,3.1,59,0.00,,,0.00,WUHU216HW,2013-03-01 06:21:00,
2013-03-01 01:26:00,46.6,33.0,29.91,NW,315,2.7,2.7,59,0.00,,,0.00,WUHU216HW,2013-03-01 06:26:00,
2013-03-01 01:31:00,46.4,33.3,29.91,NW,315,2.2,2.7,60,0.00,,,0.00,WUHU216HW,2013-03-01 06:31:00,
2013-03-01 01:36:00,46.4,33.3,29.91,NW,315,1.1,2.5,60,0.00,,,0.00,WUHU216HW,2013-03-01 06:36:00,
2013-03-01 01:41:00,46.3,33.1,29.91,NNW,338,1.3,1.8,60,0.00,,,0.00,WUHU216HW,2013-03-01 06:41:00,
2013-03-01 01:46:00,46.3,33.1,29.91,NW,315,0.9,1.6,60,0.00,,,0.00,WUHU216HW,2013-03-01 06:46:00,
2013-03-01 01:51:00,46.1,32.9,29.91,NW,315,1.3,1.8,60,0.00,,,0.00,WUHU216HW,2013-03-01 06:51:00,
2013-03-01 01:56:00,46.1,32.9,29.91,NNW,338,1.8,1.8,60,0.00,,,0.00,WUHU216HW,2013-03-01 06:56:00,
2013-03-01 02:01:00,45.9,32.9,29.91,NW,315,0.7,2.5,60,0.00,,,0.00,WUHU216HW,2013-03-01 07:01:00,
2013-03-01 02:06:00,45.7,32.7,29.91,NNW,338,1.3,2.5,60,0.00,,,0.00,WUHU216HW,2013-03-01 07:06:00,
2013-03-01 02:11:00,45.7,32.7,29.91,NW,315,1.6,2.5,60,0.00,,,0.00,WUHU216HW,2013-03-01 07:11:00,
2013-03-01 02:16:00,45.5,32.5,29.92,NW,315,1.8,2.5,60,0.00,,,0.00,WUHU216HW,2013-03-01 07:16:00,
2013-03-01 02:21:00,45.4,32.3,29.91,NW,315,1.6,2.2,60,0.00,,,0.00,WUHU216HW,2013-03-01 07:21:00,
2013-03-01 02:26:00,45.4,32.3,29.92,WNW,293,1.8,2.2,60,0.00,,,0.00,WUHU216HW,2013-03-01 07:26:00,
2013-03-01 02:31:00,45.2,32.1,29.92,NNW,338,0.7,2.2,60,0.00,,,0.00,WUHU216HW,2013-03-01 07:31:00,
2013-03-01 02:36:00,45.2,32.1,29.91,WNW,293,2.2,2.2,60,0.00,,,0.00,WUHU216HW,2013-03-01 07:36:00,
2013-03-01 02:41:00,45.0,32.1,29.92,NW,315,1.8,2.2,60,0.00,,,0.00,WUHU216HW,2013-03-01 07:41:00,
2013-03-01 02:46:00,45.0,32.1,29.92,West,270,0.9,2.0,60,0.00,,,0.00,WUHU216HW,2013-03-01 07:46:00,
2013-03-01 02:51:00,44.8,31.9,29.92,NW,315,0.9,1.6,60,0.00,,,0.00,WUHU216HW,2013-03-01 07:51:00,
2013-03-01 02:56:00,44.8,31.9,29.92,NNW,338,1.1,2.2,60,0.00,,,0.00,WUHU216HW,2013-03-01 07:56:00,
2013-03-01 03:01:00,44.6,31.7,29.91,NNW,338,2.0,2.5,60,0.00,,,0.00,WUHU216HW,2013-03-01 08:01:00,
2013-03-01 03:06:00,44.6,32.0,29.92,NW,315,0.4,2.5,61,0.00,,,0.00,WUHU216HW,2013-03-01 08:06:00,
2013-03-01 03:11:00,44.5,31.9,29.92,WNW,293,1.1,1.8,61,0.00,,,0.00,WUHU216HW,2013-03-01 08:11:00,
2013-03-01 03:16:00,44.5,31.9,29.92,NW,315,0.9,1.8,61,0.00,,,0.00,WUHU216HW,2013-03-01 08:16:00,
2013-03-01 03:21:00,44.3,31.7,29.92,NNW,338,1.1,1.8,61,0.00,,,0.00,WUHU216HW,2013-03-01 08:21:00,
2013-03-01 03:26:00,44.3,31.7,29.92,NW,315,1.1,1.6,61,0.00,,,0.00,WUHU216HW,2013-03-01 08:26:00,
2013-03-01 03:31:00,44.3,32.0,29.92,WNW,293,0.7,1.6,62,0.00,,,0.00,WUHU216HW,2013-03-01 08:31:00,
2013-03-01 03:36:00,44.1,32.0,29.92,NW,315,2.0,2.7,62,0.00,,,0.00,WUHU216HW,2013-03-01 08:36:00,
2013-03-01 03:41:00,44.1,32.0,29.92,WSW,248,1.6,2.7,62,0.00,,,0.00,WUHU216HW,2013-03-01 08:41:00,
2013-03-01 03:46:00,43.9,31.8,29.92,NW,315,1.8,2.0,62,0.00,,,0.00,WUHU216HW,2013-03-01 08:46:00,
2013-03-01 03:51:00,43.7,31.6,29.92,NNW,338,1.6,2.2,62,0.00,,,0.00,WUHU216HW,2013-03-01 08:51:00,
2013-03-01 03:56:00,43.7,31.6,29.92,NW,315,0.4,2.2,62,0.00,,,0.00,WUHU216HW,2013-03-01 08:56:00,
2013-03-01 04:01:00,43.6,31.4,29.92,NNW,338,1.1,1.3,62,0.00,,,0.00,WUHU216HW,2013-03-01 09:01:00,
2013-03-01 04:06:00,43.6,31.4,29.92,NW,315,1.3,1.3,62,0.00,,,0.00,WUHU216HW,2013-03-01 09:06:00,
2013-03-01 04:11:00,43.6,31.8,29.92,NW,315,1.8,1.8,63,0.00,,,0.00,WUHU216HW,2013-03-01 09:11:00,
2013-03-01 04:16:00,43.4,31.6,29.92,NW,315,0.7,1.8,63,0.00,,,0.00,WUHU216HW,2013-03-01 09:16:00,
2013-03-01 04:21:00,43.4,31.6,29.92,WNW,293,0.4,2.9,63,0.00,,,0.00,WUHU216HW,2013-03-01 09:21:00,
2013-03-01 04:26:00,43.2,31.4,29.92,WNW,293,1.3,2.9,63,0.00,,,0.00,WUHU216HW,2013-03-01 09:26:00,
2013-03-01 04:31:00,43.2,31.4,29.92,NNW,338,1.6,2.5,63,0.00,,,0.00,WUHU216HW,2013-03-01 09:31:00,
2013-03-01 04:36:00,43.0,31.2,29.92,NNW,338,1.6,2.5,63,0.00,,,0.00,WUHU216HW,2013-03-01 09:36:00,
2013-03-01 04:41:00,43.0,31.2,29.92,NNW,338,1.3,2.5,63,0.00,,,0.00,WUHU216HW,2013-03-01 09:41:00,
2013-03-01 04:46:00,42.8,31.1,29.92,WNW,293,2.0,2.0,63,0.00,,,0.00,WUHU216HW,2013-03-01 09:46:00,
2013-03-01 04:51:00,42.8,31.1,29.92,NNW,338,1.8,2.0,63,0.00,,,0.00,WUHU216HW,2013-03-01 09:51:00,
2013-03-01 04:56:00,42.8,31.1,29.92,NNW,338,1.6,2.0,63,0.00,,,0.00,WUHU216HW,2013-03-01 09:56:00,
2013-03-01 05:01:00,42.7,30.9,29.92,NNW,338,0.4,1.8,63,0.00,,,0.00,WUHU216HW,2013-03-01 10:01:00,
2013-03-01 05:06:00,42.7,30.9,29.92,NW,315,1.6,1.8,63,0.00,,,0.00,WUHU216HW,2013-03-01 10:06:00,
2013-03-01 05:11:00,42.5,30.7,29.92,NW,315,1.6,1.6,63,0.00,,,0.00,WUHU216HW,2013-03-01 10:11:00,
2013-03-01 05:16:00,42.5,30.7,29.92,NNW,338,0.9,2.0,63,0.00,,,0.00,WUHU216HW,2013-03-01 10:16:00,
2013-03-01 05:21:00,42.5,30.7,29.92,NW,315,1.1,2.0,63,0.00,,,0.00,WUHU216HW,2013-03-01 10:21:00,
2013-03-01 05:26:00,42.3,30.6,29.92,NW,315,0.4,1.8,63,0.00,,,0.00,WUHU216HW,2013-03-01 10:26:00,
2013-03-01 05:31:00,42.1,30.8,29.92,NW,315,0.9,2.0,64,0.00,,,0.00,WUHU216HW,2013-03-01 10:31:00,
2013-03-01 05:36:00,42.1,30.8,29.92,NW,315,1.1,2.0,64,0.00,,,0.00,WUHU216HW,2013-03-01 10:36:00,
2013-03-01 05:41:00,42.1,30.8,29.92,NW,315,1.1,2.0,64,0.00,,,0.00,WUHU216HW,2013-03-01 10:41:00,
2013-03-01 05:46:00,42.1,30.8,29.92,WNW,293,0.4,2.2,64,0.00,,,0.00,WUHU216HW,2013-03-01 10:46:00,
2013-03-01 05:51:00,42.1,31.1,29.92,NNW,338,0.7,2.2,65,0.00,,,0.00,WUHU216HW,2013-03-01 10:51:00,
2013-03-01 05:56:00,41.9,31.0,29.93,NNW,338,0.7,1.1,65,0.00,,,0.00,WUHU216HW,2013-03-01 10:56:00,
2013-03-01 06:01:00,41.9,31.0,29.93,NNW,338,0.7,3.4,65,0.00,,,0.00,WUHU216HW,2013-03-01 11:01:00,
2013-03-01 06:06:00,41.8,30.9,29.92,NW,315,0.4,3.4,65,0.00,,,0.00,WUHU216HW,2013-03-01 11:06:00,
2013-03-01 06:11:00,41.8,30.9,29.93,NW,315,0.4,2.2,65,0.00,,,0.00,WUHU216HW,2013-03-01 11:11:00,
2013-03-01 06:16:00,41.8,30.9,29.92,NW,315,1.3,1.8,65,0.00,,,0.00,WUHU216HW,2013-03-01 11:16:00,
2013-03-01 06:21:00,41.6,30.7,29.93,NW,315,1.1,1.8,65,0.00,,,0.00,WUHU216HW,2013-03-01 11:21:00,
2013-03-01 06:26:00,41.6,30.7,29.92,NNW,338,0.7,2.5,65,0.00,,,0.00,WUHU216HW,2013-03-01 11:26:00,
2013-03-01 06:31:00,41.6,30.7,29.93,NW,315,1.1,2.5,65,0.00,,,0.00,WUHU216HW,2013-03-01 11:31:00,
2013-03-01 06:36:00,41.4,30.5,29.93,NNW,338,0.9,1.6,65,0.00,,,0.00,WUHU216HW,2013-03-01 11:36:00,
2013-03-01 06:41:00,41.4,30.5,29.93,NW,315,0.4,2.9,65,0.00,,,0.00,WUHU216HW,2013-03-01 11:41:00,
2013-03-01 06:46:00,41.4,30.5,29.93,NNW,338,0.7,2.9,65,0.00,,,0.00,WUHU216HW,2013-03-01 11:46:00,
2013-03-01 06:51:00,41.4,30.9,29.94,NW,315,1.8,1.8,66,0.00,,,0.00,WUHU216HW,2013-03-01 11:51:00,
2013-03-01 06:56:00,41.4,30.9,29.94,NW,315,0.7,2.5,66,0.00,,,0.00,WUHU216HW,2013-03-01 11:56:00,
2013-03-01 07:01:00,41.2,30.7,29.94,NNW,338,0.9,2.5,66,0.00,,,0.00,WUHU216HW,2013-03-01 12:01:00,
2013-03-01 07:06:00,41.2,30.7,29.94,NW,315,0.4,1.8,66,0.00,,,0.00,WUHU216HW,2013-03-01 12:06:00,
2013-03-01 07:11:00,41.2,30.7,29.94,NW,315,0.7,2.0,66,0.00,,,0.00,WUHU216HW,2013-03-01 12:11:00,
2013-03-01 07:16:00,41.0,30.5,29.94,West,270,0.7,2.0,66,0.00,,,0.00,WUHU216HW,2013-03-01 12:16:00,
2013-03-01 07:21:00,41.0,30.9,29.94,NW,315,0.7,1.8,67,0.00,,,0.00,WUHU216HW,2013-03-01 12:21:00,
2013-03-01 07:26:00,41.0,30.9,29.94,NNW,338,0.4,1.3,67,0.00,,,0.00,WUHU216HW,2013-03-01 12:26:00,
2013-03-01 07:31:00,41.0,30.9,29.94,NW,315,0.2,2.2,67,0.00,,,0.00,WUHU216HW,2013-03-01 12:31:00,
2013-03-01 07:36:00,41.0,30.9,29.94,NNW,338,0.4,2.2,67,0.00,,,0.00,WUHU216HW,2013-03-01 12:36:00,
2013-03-01 07:41:00,41.0,30.9,29.94,NNW,338,0.7,2.2,67,0.00,,,0.00,WUHU216HW,2013-03-01 12:41:00,
2013-03-01 07:46:00,41.0,30.9,29.94,NW,315,0.9,2.2,67,0.00,,,0.00,WUHU216HW,2013-03-01 12:46:00,
2013-03-01 07:51:00,41.0,30.9,29.94,WNW,293,0.4,2.2,67,0.00,,,0.00,WUHU216HW,2013-03-01 12:51:00,
2013-03-01 07:56:00,41.2,31.1,29.95,NW,315,0.4,2.2,67,0.00,,,0.00,WUHU216HW,2013-03-01 12:56:00,
2013-03-01 08:01:00,41.2,31.1,29.94,WNW,293,0.2,1.6,67,0.00,,,0.00,WUHU216HW,2013-03-01 13:01:00,
2013-03-01 08:06:00,41.4,31.2,29.94,NW,315,0.4,0.9,67,0.00,,,0.00,WUHU216HW,2013-03-01 13:06:00,
2013-03-01 08:11:00,41.4,31.2,29.94,NW,315,0.2,1.8,67,0.00,,,0.00,WUHU216HW,2013-03-01 13:11:00,
2013-03-01 08:16:00,41.4,31.2,29.94,North,0,0.4,1.8,67,0.00,,,0.00,WUHU216HW,2013-03-01 13:16:00,
2013-03-01 08:21:00,41.6,31.4,29.95,NW,315,1.1,2.0,67,0.00,,,0.00,WUHU216HW,2013-03-01 13:21:00,
2013-03-01 08:26:00,41.6,31.4,29.95,NW,315,0.7,2.0,67,0.00,,,0.00,WUHU216HW,2013-03-01 13:26:00,
2013-03-01 08:31:00,41.8,31.6,29.96,NW,315,1.1,1.1,67,0.00,,,0.00,WUHU216HW,2013-03-01 13:31:00,
2013-03-01 08:36:00,41.8,31.6,29.96,NNW,338,1.1,1.3,67,0.00,,,0.00,WUHU216HW,2013-03-01 13:36:00,
2013-03-01 08:41:00,41.9,31.8,29.95,NNW,338,0.4,2.0,67,0.00,,,0.00,WUHU216HW,2013-03-01 13:41:00,
2013-03-01 08:46:00,42.1,32.3,29.95,NW,315,0.0,2.5,68,0.00,,,0.00,WUHU216HW,2013-03-01 13:46:00,
2013-03-01 08:51:00,42.1,32.3,29.95,NW,315,0.4,2.5,68,0.00,,,0.00,WUHU216HW,2013-03-01 13:51:00,
2013-03-01 08:56:00,42.3,32.5,29.95,WSW,248,0.2,1.1,68,0.00,,,0.00,WUHU216HW,2013-03-01 13:56:00,
2013-03-01 09:01:00,42.3,32.5,29.95,NNW,338,2.0,2.0,68,0.00,,,0.00,WUHU216HW,2013-03-01 14:01:00,
2013-03-01 09:06:00,42.5,32.7,29.95,NNW,338,0.2,2.0,68,0.00,,,0.00,WUHU216HW,2013-03-01 14:06:00,
2013-03-01 09:11:00,42.5,32.7,29.95,West,270,0.0,1.6,68,0.00,,,0.00,WUHU216HW,2013-03-01 14:11:00,
2013-03-01 09:16:00,42.7,32.9,29.95,NNW,338,0.0,2.2,68,0.00,,,0.00,WUHU216HW,2013-03-01 14:16:00,
2013-03-01 09:21:00,42.8,33.0,29.96,WNW,293,1.6,2.2,68,0.00,,,0.00,WUHU216HW,2013-03-01 14:21:00,
2013-03-01 09:26:00,42.8,32.7,29.96,NW,315,0.9,1.6,67,0.00,,,0.00,WUHU216HW,2013-03-01 14:26:00,
2013-03-01 09:31:00,42.8,32.7,29.96,West,270,1.1,2.0,67,0.00,,,0.00,WUHU216HW,2013-03-01 14:31:00,
2013-03-01 09:36:00,43.2,33.0,29.96,NW,315,0.7,2.0,67,0.00,,,0.00,WUHU216HW,2013-03-01 14:36:00,
2013-03-01 09:41:00,43.2,33.0,29.95,NW,315,0.4,1.8,67,0.00,,,0.00,WUHU216HW,2013-03-01 14:41:00,
2013-03-01 09:46:00,43.4,33.1,29.95,NW,315,1.1,2.0,67,0.00,,,0.00,WUHU216HW,2013-03-01 14:46:00,
2013-03-01 09:51:00,43.6,33.3,29.95,East,90,0.2,2.0,67,0.00,,,0.00,WUHU216HW,2013-03-01 14:51:00,
2013-03-01 09:56:00,43.9,33.7,29.95,WNW,293,1.3,2.2,67,0.00,,,0.00,WUHU216HW,2013-03-01 14:56:00,
2013-03-01 10:01:00,44.3,33.6,29.95,NW,315,0.4,2.7,66,0.00,,,0.00,WUHU216HW,2013-03-01 15:01:00,
2013-03-01 10:06:00,44.3,33.6,29.95,NW,315,1.1,2.7,66,0.00,,,0.00,WUHU216HW,2013-03-01 15:06:00,
2013-03-01 10:11:00,44.5,33.8,29.95,WNW,293,1.8,2.5,66,0.00,,,0.00,WUHU216HW,2013-03-01 15:11:00,
2013-03-01 10:16:00,44.6,33.6,29.95,WNW,293,0.9,2.7,65,0.00,,,0.00,WUHU216HW,2013-03-01 15:16:00,
2013-03-01 10:21:00,44.8,33.8,29.95,NNW,338,0.4,2.7,65,0.00,,,0.00,WUHU216HW,2013-03-01 15:21:00,
2013-03-01 10:26:00,45.0,33.9,29.95,WNW,293,1.1,1.1,65,0.00,,,0.00,WUHU216HW,2013-03-01 15:26:00,
2013-03-01 10:31:00,45.4,33.8,29.95,SE,135,0.4,1.1,64,0.00,,,0.00,WUHU216HW,2013-03-01 15:31:00,
2013-03-01 10:36:00,45.5,34.0,29.95,NW,315,0.7,1.1,64,0.00,,,0.00,WUHU216HW,2013-03-01 15:36:00,
2013-03-01 10:41:00,45.7,34.2,29.95,SSE,158,1.3,1.3,64,0.00,,,0.00,WUHU216HW,2013-03-01 15:41:00,
2013-03-01 10:46:00,45.9,34.0,29.95,East,90,1.3,1.8,63,0.00,,,0.00,WUHU216HW,2013-03-01 15:46:00,
2013-03-01 10:51:00,46.4,34.9,29.95,NW,315,0.7,1.8,64,0.00,,,0.00,WUHU216HW,2013-03-01 15:51:00,
2013-03-01 10:56:00,46.4,34.5,29.95,ENE,68,2.5,2.5,63,0.00,,,0.00,WUHU216HW,2013-03-01 15:56:00,
2013-03-01 11:01:00,46.8,34.8,29.95,SE,135,1.1,2.5,63,0.00,,,0.00,WUHU216HW,2013-03-01 16:01:00,
2013-03-01 11:06:00,47.2,34.8,29.95,NE,45,0.2,3.4,62,0.00,,,0.00,WUHU216HW,2013-03-01 16:06:00,
2013-03-01 11:11:00,47.5,35.2,29.95,NNW,338,1.1,3.4,62,0.00,,,0.00,WUHU216HW,2013-03-01 16:11:00,
2013-03-01 11:16:00,47.5,35.2,29.95,NNW,338,0.4,2.0,62,0.00,,,0.00,WUHU216HW,2013-03-01 16:16:00,
2013-03-01 11:21:00,47.7,34.9,29.95,NNW,338,0.4,2.0,61,0.00,,,0.00,WUHU216HW,2013-03-01 16:21:00,
2013-03-01 11:26:00,47.9,35.1,29.95,NW,315,1.3,1.6,61,0.00,,,0.00,WUHU216HW,2013-03-01 16:26:00,
2013-03-01 11:31:00,47.9,35.1,29.95,SE,135,0.2,2.0,61,0.00,,,0.00,WUHU216HW,2013-03-01 16:31:00,
2013-03-01 11:36:00,48.1,35.3,29.94,ESE,113,0.0,2.0,61,0.00,,,0.00,WUHU216HW,2013-03-01 16:36:00,
2013-03-01 11:41:00,48.2,35.5,29.94,ESE,113,2.5,2.5,61,0.00,,,0.00,WUHU216HW,2013-03-01 16:41:00,
2013-03-01 11:46:00,48.6,35.8,29.94,WNW,293,0.4,2.5,61,0.00,,,0.00,WUHU216HW,2013-03-01 16:46:00,
2013-03-01 11:51:00,48.8,36.0,29.94,ENE,68,0.0,1.1,61,0.00,,,0.00,WUHU216HW,2013-03-01 16:51:00,
2013-03-01 11:56:00,49.0,36.1,29.94,NNE,23,1.1,1.6,61,0.00,,,0.00,WUHU216HW,2013-03-01 16:56:00,
2013-03-01 12:01:00,49.3,35.7,29.94,SE,135,0.4,2.5,59,0.00,,,0.00,WUHU216HW,2013-03-01 17:01:00,
2013-03-01 12:06:00,49.1,35.5,29.94,WNW,293,1.8,2.5,59,0.00,,,0.00,WUHU216HW,2013-03-01 17:06:00,
2013-03-01 12:11:00,49.3,35.7,29.94,SW,225,0.9,1.8,59,0.00,,,0.00,WUHU216HW,2013-03-01 17:11:00,
2013-03-01 12:16:00,49.5,35.8,29.94,NNW,338,3.4,3.4,59,0.00,,,0.00,WUHU216HW,2013-03-01 17:16:00,
2013-03-01 12:21:00,49.3,35.7,29.93,West,270,0.0,3.4,59,0.00,,,0.00,WUHU216HW,2013-03-01 17:21:00,
2013-03-01 12:26:00,49.5,35.8,29.93,NNW,338,1.1,1.8,59,0.00,,,0.00,WUHU216HW,2013-03-01 17:26:00,
2013-03-01 12:31:00,49.7,35.5,29.93,NNW,338,0.7,2.5,58,0.00,,,0.00,WUHU216HW,2013-03-01 17:31:00,
2013-03-01 12:36:00,49.7,35.5,29.92,NNW,338,0.0,2.5,58,0.00,,,0.00,WUHU216HW,2013-03-01 17:36:00,
2013-03-01 12:41:00,49.9,35.6,29.92,WNW,293,0.0,1.6,58,0.00,,,0.00,WUHU216HW,2013-03-01 17:41:00,
2013-03-01 12:46:00,50.0,35.8,29.92,NNW,338,0.4,2.5,58,0.00,,,0.00,WUHU216HW,2013-03-01 17:46:00,
2013-03-01 12:51:00,50.2,35.6,29.92,NW,315,0.4,2.5,57,0.00,,,0.00,WUHU216HW,2013-03-01 17:51:00,
2013-03-01 12:56:00,50.2,35.6,29.92,NNW,338,0.7,2.5,57,0.00,,,0.00,WUHU216HW,2013-03-01 17:56:00,
2013-03-01 13:01:00,50.2,35.6,29.92,East,90,0.4,2.5,57,0.00,,,0.00,WUHU216HW,2013-03-01 18:01:00,
2013-03-01 13:06:00,50.4,34.8,29.92,South,180,0.0,2.2,55,0.00,,,0.00,WUHU216HW,2013-03-01 18:06:00,
2013-03-01 13:11:00,50.6,35.4,29.91,NW,315,0.4,2.2,56,0.00,,,0.00,WUHU216HW,2013-03-01 18:11:00,
2013-03-01 13:16:00,50.8,35.6,29.91,West,270,0.9,1.8,56,0.00,,,0.00,WUHU216HW,2013-03-01 18:16:00,
2013-03-01 13:21:00,50.9,35.7,29.91,West,270,0.7,2.0,56,0.00,,,0.00,WUHU216HW,2013-03-01 18:21:00,
2013-03-01 13:26:00,50.8,35.6,29.91,NNW,338,0.9,2.0,56,0.00,,,0.00,WUHU216HW,2013-03-01 18:26:00,
2013-03-01 13:31:00,50.8,35.1,29.90,NNW,338,3.4,3.4,55,0.00,,,0.00,WUHU216HW,2013-03-01 18:31:00,
2013-03-01 13:36:00,50.6,34.9,29.90,WNW,293,2.0,3.4,55,0.00,,,0.00,WUHU216HW,2013-03-01 18:36:00,
2013-03-01 13:41:00,50.8,35.1,29.90,WNW,293,0.7,2.0,55,0.00,,,0.00,WUHU216HW,2013-03-01 18:41:00,
2013-03-01 13:46:00,51.1,35.5,29.90,NNW,338,1.1,1.1,55,0.00,,,0.00,WUHU216HW,2013-03-01 18:46:00,
2013-03-01 13:51:00,51.3,35.7,29.89,NNW,338,0.4,2.9,55,0.00,,,0.00,WUHU216HW,2013-03-01 18:51:00,
2013-03-01 13:56:00,51.5,35.7,29.89,SW,225,0.0,2.9,55,0.00,,,0.00,WUHU216HW,2013-03-01 18:56:00,
2013-03-01 14:01:00,51.7,35.9,29.89,NNE,23,0.0,1.8,55,0.00,,,0.00,WUHU216HW,2013-03-01 19:01:00,
2013-03-01 14:06:00,51.7,35.9,29.89,SSE,158,0.7,2.5,55,0.00,,,0.00,WUHU216HW,2013-03-01 19:06:00,
2013-03-01 14:11:00,51.7,35.9,29.89,NNW,338,1.1,2.5,55,0.00,,,0.00,WUHU216HW,2013-03-01 19:11:00,
2013-03-01 14:16:00,51.7,35.9,29.88,NW,315,0.4,1.3,55,0.00,,,0.00,WUHU216HW,2013-03-01 19:16:00,
2013-03-01 14:21:00,51.8,35.6,29.88,WNW,293,1.3,2.5,54,0.00,,,0.00,WUHU216HW,2013-03-01 19:21:00,
2013-03-01 14:26:00,52.0,35.8,29.88,SW,225,2.0,2.5,54,0.00,,,0.00,WUHU216HW,2013-03-01 19:26:00,
2013-03-01 14:31:00,52.2,36.0,29.88,SW,225,1.3,3.6,54,0.00,,,0.00,WUHU216HW,2013-03-01 19:31:00,
2013-03-01 14:36:00,52.4,36.6,29.88,WSW,248,2.5,3.6,55,0.00,,,0.00,WUHU216HW,2013-03-01 19:36:00,
2013-03-01 14:41:00,52.4,36.2,29.88,SW,225,0.4,2.5,54,0.00,,,0.00,WUHU216HW,2013-03-01 19:41:00,
2013-03-01 14:46:00,52.6,36.4,29.88,NW,315,0.7,2.2,54,0.00,,,0.00,WUHU216HW,2013-03-01 19:46:00,
2013-03-01 14:51:00,52.6,36.4,29.87,NW,315,1.6,2.2,54,0.00,,,0.00,WUHU216HW,2013-03-01 19:51:00,
2013-03-01 14:56:00,52.6,36.4,29.88,NNW,338,2.5,2.5,54,0.00,,,0.00,WUHU216HW,2013-03-01 19:56:00,
2013-03-01 15:01:00,52.6,36.4,29.88,NNW,338,0.0,3.1,54,0.00,,,0.00,WUHU216HW,2013-03-01 20:01:00,
2013-03-01 15:06:00,52.4,36.2,29.87,NW,315,1.1,3.1,54,0.00,,,0.00,WUHU216HW,2013-03-01 20:06:00,
2013-03-01 15:11:00,52.4,36.2,29.87,NNW,338,1.8,2.5,54,0.00,,,0.00,WUHU216HW,2013-03-01 20:11:00,
2013-03-01 15:16:00,52.6,35.8,29.87,South,180,2.2,2.5,53,0.00,,,0.00,WUHU216HW,2013-03-01 20:16:00,
2013-03-01 15:21:00,52.6,35.8,29.87,NW,315,1.8,2.2,53,0.00,,,0.00,WUHU216HW,2013-03-01 20:21:00,
2013-03-01 15:26:00,52.6,35.8,29.87,SW,225,1.6,3.1,53,0.00,,,0.00,WUHU216HW,2013-03-01 20:26:00,
2013-03-01 15:31:00,52.7,36.5,29.87,NW,315,1.8,3.1,54,0.00,,,0.00,WUHU216HW,2013-03-01 20:31:00,
2013-03-01 15:36:00,52.6,36.4,29.87,NW,315,1.6,3.4,54,0.00,,,0.00,WUHU216HW,2013-03-01 20:36:00,
2013-03-01 15:41:00,52.6,35.8,29.87,NNW,338,1.1,3.4,53,0.00,,,0.00,WUHU216HW,2013-03-01 20:41:00,
2013-03-01 15:46:00,52.7,36.0,29.87,NNW,338,0.2,1.6,53,0.00,,,0.00,WUHU216HW,2013-03-01 20:46:00,
2013-03-01 15:51:00,52.7,36.0,29.87,NW,315,2.0,2.0,53,0.00,,,0.00,WUHU216HW,2013-03-01 20:51:00,
2013-03-01 15:56:00,52.6,35.8,29.87,WSW,248,0.2,2.0,53,0.00,,,0.00,WUHU216HW,2013-03-01 20:56:00,
2013-03-01 16:01:00,52.7,36.0,29.87,ENE,68,0.4,1.8,53,0.00,,,0.00,WUHU216HW,2013-03-01 21:01:00,
2013-03-01 16:06:00,52.9,36.2,29.88,NW,315,1.1,2.5,53,0.00,,,0.00,WUHU216HW,2013-03-01 21:06:00,
2013-03-01 16:11:00,52.7,36.0,29.88,NW,315,1.3,2.5,53,0.00,,,0.00,WUHU216HW,2013-03-01 21:11:00,
2013-03-01 16:16:00,52.7,36.0,29.88,WNW,293,1.6,3.4,53,0.00,,,0.00,WUHU216HW,2013-03-01 21:16:00,
2013-03-01 16:21:00,52.6,35.8,29.88,NW,315,0.2,3.4,53,0.00,,,0.00,WUHU216HW,2013-03-01 21:21:00,
2013-03-01 16:26:00,52.6,35.8,29.88,NW,315,0.9,2.5,53,0.00,,,0.00,WUHU216HW,2013-03-01 21:26:00,
2013-03-01 16:31:00,52.4,35.7,29.88,NNW,338,1.1,1.3,53,0.00,,,0.00,WUHU216HW,2013-03-01 21:31:00,
2013-03-01 16:36:00,52.4,35.7,29.88,NW,315,1.1,1.1,53,0.00,,,0.00,WUHU216HW,2013-03-01 21:36:00,
2013-03-01 16:41:00,52.4,35.7,29.88,WNW,293,1.6,1.8,53,0.00,,,0.00,WUHU216HW,2013-03-01 21:41:00,
2013-03-01 16:46:00,52.2,35.6,29.87,West,270,0.2,1.8,53,0.00,,,0.00,WUHU216HW,2013-03-01 21:46:00,
2013-03-01 16:51:00,52.2,35.6,29.88,NNW,338,0.7,3.4,53,0.00,,,0.00,WUHU216HW,2013-03-01 21:51:00,
2013-03-01 16:56:00,52.2,35.6,29.88,NW,315,1.3,3.4,53,0.00,,,0.00,WUHU216HW,2013-03-01 21:56:00,
2013-03-01 17:01:00,52.2,35.6,29.88,NNW,338,1.8,1.8,53,0.00,,,0.00,WUHU216HW,2013-03-01 22:01:00,
2013-03-01 17:06:00,52.0,35.4,29.89,NNW,338,1.6,1.8,53,0.00,,,0.00,WUHU216HW,2013-03-01 22:06:00,
2013-03-01 17:11:00,52.0,35.4,29.88,NW,315,0.4,1.8,53,0.00,,,0.00,WUHU216HW,2013-03-01 22:11:00,
2013-03-01 17:16:00,51.8,35.2,29.88,WNW,293,0.4,1.8,53,0.00,,,0.00,WUHU216HW,2013-03-01 22:16:00,
2013-03-01 17:21:00,51.8,35.6,29.88,NW,315,0.4,0.9,54,0.00,,,0.00,WUHU216HW,2013-03-01 22:21:00,
2013-03-01 17:26:00,51.7,35.5,29.88,West,270,1.8,2.5,54,0.00,,,0.00,WUHU216HW,2013-03-01 22:26:00,
2013-03-01 17:31:00,51.5,35.3,29.88,NNW,338,0.9,2.5,54,0.00,,,0.00,WUHU216HW,2013-03-01 22:31:00,
2013-03-01 17:36:00,51.5,35.3,29.88,NW,315,0.4,1.8,54,0.00,,,0.00,WUHU216HW,2013-03-01 22:36:00,
2013-03-01 17:41:00,51.3,35.2,29.88,West,270,1.3,1.8,54,0.00,,,0.00,WUHU216HW,2013-03-01 22:41:00,
2013-03-01 17:46:00,51.3,35.2,29.89,NNW,338,0.4,1.8,54,0.00,,,0.00,WUHU216HW,2013-03-01 22:46:00,
2013-03-01 17:51:00,51.1,35.5,29.89,WNW,293,0.2,1.8,55,0.00,,,0.00,WUHU216HW,2013-03-01 22:51:00,
2013-03-01 17:56:00,51.1,35.5,29.89,NW,315,0.7,1.1,55,0.00,,,0.00,WUHU216HW,2013-03-01 22:56:00,
2013-03-01 18:01:00,50.9,35.3,29.90,WNW,293,1.1,1.1,55,0.00,,,0.00,WUHU216HW,2013-03-01 23:01:00,
2013-03-01 18:06:00,50.9,35.3,29.90,NW,315,0.7,1.1,55,0.00,,,0.00,WUHU216HW,2013-03-01 23:06:00,
2013-03-01 18:11:00,50.8,35.1,29.90,NW,315,0.2,0.9,55,0.00,,,0.00,WUHU216HW,2013-03-01 23:11:00,
2013-03-01 18:16:00,50.8,35.1,29.91,NW,315,0.7,1.8,55,0.00,,,0.00,WUHU216HW,2013-03-01 23:16:00,
2013-03-01 18:21:00,50.6,35.4,29.91,North,0,0.2,1.8,56,0.00,,,0.00,WUHU216HW,2013-03-01 23:21:00,
2013-03-01 18:26:00,50.6,35.4,29.91,NW,315,0.4,0.7,56,0.00,,,0.00,WUHU216HW,2013-03-01 23:26:00,
2013-03-01 18:31:00,50.4,35.3,29.91,NW,315,0.0,0.7,56,0.00,,,0.00,WUHU216HW,2013-03-01 23:31:00,
2013-03-01 18:36:00,50.2,35.1,29.91,NW,315,0.0,0.4,56,0.00,,,0.00,WUHU216HW,2013-03-01 23:36:00,
2013-03-01 18:41:00,50.2,35.1,29.91,NW,315,0.0,0.4,56,0.00,,,0.00,WUHU216HW,2013-03-01 23:41:00,
2013-03-01 18:46:00,50.0,34.9,29.90,NW,315,0.0,0.0,56,0.00,,,0.00,WUHU216HW,2013-03-01 23:46:00,
2013-03-01 18:51:00,50.0,35.4,29.91,NW,315,0.0,0.2,57,0.00,,,0.00,WUHU216HW,2013-03-01 23:51:00,
2013-03-01 18:56:00,49.9,35.2,29.91,NW,315,0.0,0.2,57,0.00,,,0.00,WUHU216HW,2013-03-01 23:56:00,
2013-03-01 19:01:00,49.9,35.2,29.91,NW,315,0.0,0.2,57,0.00,,,0.00,WUHU216HW,2013-03-02 00:01:00,
2013-03-01 19:06:00,49.7,35.5,29.91,NW,315,0.0,0.0,58,0.00,,,0.00,WUHU216HW,2013-03-02 00:06:00,
2013-03-01 19:11:00,49.5,35.3,29.92,NW,315,0.0,0.0,58,0.00,,,0.00,WUHU216HW,2013-03-02 00:11:00,
2013-03-01 19:16:00,49.5,35.8,29.91,NW,315,0.0,0.0,59,0.00,,,0.00,WUHU216HW,2013-03-02 00:16:00,
2013-03-01 19:21:00,49.3,36.1,29.91,NW,315,0.0,0.0,60,0.00,,,0.00,WUHU216HW,2013-03-02 00:21:00,
2013-03-01 19:26:00,49.3,36.1,29.92,NW,315,0.0,0.0,60,0.00,,,0.00,WUHU216HW,2013-03-02 00:26:00,
2013-03-01 19:31:00,49.1,36.3,29.92,NW,315,0.0,0.0,61,0.00,,,0.00,WUHU216HW,2013-03-02 00:31:00,
2013-03-01 19:36:00,49.1,36.3,29.92,NW,315,0.0,0.0,61,0.00,,,0.00,WUHU216HW,2013-03-02 00:36:00,
2013-03-01 19:41:00,49.0,36.1,29.92,NW,315,0.0,0.0,61,0.00,,,0.00,WUHU216HW,2013-03-02 00:41:00,
2013-03-01 19:46:00,48.8,36.0,29.92,NW,315,0.0,0.0,61,0.00,,,0.00,WUHU216HW,2013-03-02 00:46:00,
2013-03-01 19:51:00,48.6,35.8,29.93,NW,315,0.0,0.0,61,0.00,,,0.00,WUHU216HW,2013-03-02 00:51:00,
2013-03-01 19:56:00,48.6,35.8,29.92,NW,315,0.0,0.0,61,0.00,,,0.00,WUHU216HW,2013-03-02 00:56:00,
2013-03-01 20:01:00,48.4,36.0,29.92,NW,315,0.0,0.0,62,0.00,,,0.00,WUHU216HW,2013-03-02 01:01:00,
2013-03-01 20:06:00,48.2,35.8,29.92,NW,315,0.0,0.0,62,0.00,,,0.00,WUHU216HW,2013-03-02 01:06:00,
2013-03-01 20:11:00,48.2,36.3,29.92,NW,315,0.0,0.0,63,0.00,,,0.00,WUHU216HW,2013-03-02 01:11:00,
2013-03-01 20:16:00,48.1,36.1,29.92,NW,315,0.0,0.0,63,0.00,,,0.00,WUHU216HW,2013-03-02 01:16:00,
2013-03-01 20:21:00,48.1,36.1,29.92,NW,315,0.0,0.0,63,0.00,,,0.00,WUHU216HW,2013-03-02 01:21:00,
2013-03-01 20:26:00,47.9,35.9,29.92,NW,315,0.0,0.0,63,0.00,,,0.00,WUHU216HW,2013-03-02 01:26:00,
2013-03-01 20:31:00,47.9,35.9,29.93,NW,315,0.0,0.0,63,0.00,,,0.00,WUHU216HW,2013-03-02 01:31:00,
2013-03-01 20:36:00,47.7,36.1,29.92,NW,315,0.0,0.0,64,0.00,,,0.00,WUHU216HW,2013-03-02 01:36:00,
2013-03-01 20:41:00,47.5,35.9,29.93,NW,315,0.0,0.0,64,0.00,,,0.00,WUHU216HW,2013-03-02 01:41:00,
2013-03-01 20:46:00,47.5,35.9,29.92,NW,315,0.0,0.0,64,0.00,,,0.00,WUHU216HW,2013-03-02 01:46:00,
2013-03-01 20:51:00,47.3,36.2,29.93,NW,315,0.0,0.0,65,0.00,,,0.00,WUHU216HW,2013-03-02 01:51:00,
2013-03-01 20:56:00,47.3,36.2,29.93,NW,315,0.0,0.0,65,0.00,,,0.00,WUHU216HW,2013-03-02 01:56:00,
2013-03-01 21:01:00,47.2,36.0,29.93,NW,315,0.0,0.0,65,0.00,,,0.00,WUHU216HW,2013-03-02 02:01:00,
2013-03-01 21:06:00,47.2,36.4,29.93,NW,315,0.0,0.0,66,0.00,,,0.00,WUHU216HW,2013-03-02 02:06:00,
2013-03-01 21:11:00,47.2,36.4,29.93,NW,315,0.0,0.0,66,0.00,,,0.00,WUHU216HW,2013-03-02 02:11:00,
2013-03-01 21:16:00,47.0,36.2,29.94,NW,315,0.0,0.0,66,0.00,,,0.00,WUHU216HW,2013-03-02 02:16:00,
2013-03-01 21:21:00,46.8,36.5,29.94,NW,315,0.0,0.0,67,0.00,,,0.00,WUHU216HW,2013-03-02 02:21:00,
2013-03-01 21:26:00,46.8,36.5,29.94,NW,315,0.0,0.0,67,0.00,,,0.00,WUHU216HW,2013-03-02 02:26:00,
2013-03-01 21:31:00,46.6,36.3,29.94,NW,315,0.0,0.0,67,0.00,,,0.00,WUHU216HW,2013-03-02 02:31:00,
2013-03-01 21:36:00,46.4,36.5,29.94,NW,315,0.0,0.0,68,0.00,,,0.00,WUHU216HW,2013-03-02 02:36:00,
2013-03-01 21:41:00,46.4,36.5,29.94,NW,315,0.0,0.0,68,0.00,,,0.00,WUHU216HW,2013-03-02 02:41:00,
2013-03-01 21:46:00,46.4,36.5,29.94,NW,315,0.0,0.0,68,0.00,,,0.00,WUHU216HW,2013-03-02 02:46:00,
2013-03-01 21:52:00,46.3,36.3,29.94,NW,315,0.0,0.0,68,0.00,,,0.00,WUHU216HW,2013-03-02 02:52:00,
2013-03-01 21:56:00,46.3,36.7,29.94,NW,315,0.0,0.0,69,0.00,,,0.00,WUHU216HW,2013-03-02 02:56:00,
2013-03-01 22:02:00,46.1,36.6,29.94,NW,315,0.0,0.0,69,0.00,,,0.00,WUHU216HW,2013-03-02 03:02:00,
2013-03-01 22:07:00,46.1,36.6,29.94,WSW,248,0.0,0.4,69,0.00,,,0.00,WUHU216HW,2013-03-02 03:07:00,
2013-03-01 22:12:00,46.1,36.6,29.94,WSW,248,0.0,0.4,69,0.00,,,0.00,WUHU216HW,2013-03-02 03:12:00,
2013-03-01 22:17:00,46.1,36.6,29.94,WSW,248,0.0,0.0,69,0.00,,,0.00,WUHU216HW,2013-03-02 03:17:00,
2013-03-01 22:22:00,46.1,36.6,29.94,WSW,248,0.0,0.0,69,0.00,,,0.00,WUHU216HW,2013-03-02 03:22:00,
2013-03-01 22:27:00,45.9,36.7,29.94,West,270,0.0,0.0,70,0.00,,,0.00,WUHU216HW,2013-03-02 03:27:00,
2013-03-01 22:32:00,45.9,36.7,29.94,WNW,293,0.0,0.0,70,0.00,,,0.00,WUHU216HW,2013-03-02 03:32:00,
2013-03-01 22:37:00,45.7,36.5,29.94,WNW,293,0.0,0.0,70,0.00,,,0.00,WUHU216HW,2013-03-02 03:37:00,
2013-03-01 22:42:00,45.7,36.5,29.94,WNW,293,0.0,0.0,70,0.00,,,0.00,WUHU216HW,2013-03-02 03:42:00,
2013-03-01 22:47:00,45.7,36.5,29.94,WNW,293,0.0,0.0,70,0.00,,,0.00,WUHU216HW,2013-03-02 03:47:00,
2013-03-01 22:52:00,45.7,36.5,29.95,WNW,293,0.0,0.0,70,0.00,,,0.00,WUHU216HW,2013-03-02 03:52:00,
2013-03-01 22:57:00,45.5,36.7,29.94,WNW,293,0.0,0.0,71,0.00,,,0.00,WUHU216HW,2013-03-02 03:57:00,
2013-03-01 23:02:00,45.4,36.6,29.94,WNW,293,0.0,0.0,71,0.00,,,0.00,WUHU216HW,2013-03-02 04:02:00,
2013-03-01 23:07:00,45.4,36.6,29.94,WNW,293,0.0,0.0,71,0.00,,,0.00,WUHU216HW,2013-03-02 04:07:00,
2013-03-01 23:12:00,45.4,36.6,29.94,WNW,293,0.0,0.0,71,0.00,,,0.00,WUHU216HW,2013-03-02 04:12:00,
2013-03-01 23:17:00,45.2,36.4,29.94,NW,315,0.0,0.0,71,0.00,,,0.00,WUHU216HW,2013-03-02 04:17:00,
2013-03-01 23:22:00,45.2,36.4,29.93,NW,315,0.0,0.0,71,0.00,,,0.00,WUHU216HW,2013-03-02 04:22:00,
2013-03-01 23:27:00,45.0,36.2,29.93,NW,315,0.0,0.0,71,0.00,,,0.00,WUHU216HW,2013-03-02 04:27:00,
2013-03-01 23:32:00,45.0,36.2,29.93,NW,315,0.0,0.0,71,0.00,,,0.00,WUHU216HW,2013-03-02 04:32:00,
2013-03-01 23:37:00,45.0,36.6,29.93,NW,315,0.0,0.0,72,0.00,,,0.00,WUHU216HW,2013-03-02 04:37:00,
2013-03-01 23:42:00,44.8,36.4,29.93,NW,315,0.0,0.0,72,0.00,,,0.00,WUHU216HW,2013-03-02 04:42:00,
2013-03-01 23:47:00,44.6,36.2,29.93,NW,315,0.0,0.0,72,0.00,,,0.00,WUHU216HW,2013-03-02 04:47:00,
2013-03-01 23:52:00,44.5,36.0,29.93,NW,315,0.0,0.0,72,0.00,,,0.00,WUHU216HW,2013-03-02 04:52:00,
2013-03-01 23:57:00,44.3,35.8,29.94,NW,315,0.2,0.2,72,0.00,,,0.00,WUHU216HW,2013-03-02 04:57:00,